Terminal Aerodrome Forecast
Issued by NWS Pueblo, CO

Home | Current Version | Previous Version | Text Only | Print | Product List | Glossary On
Versions: 1 2 3 4 5 6 7 8 9 10 11 12 13 14 15 16 17 18 19 20 21 22 23 24 25 26 27 28 29 30 31 32 33 34 35 36 37 38 39 40 41
000
FTUS45 KPUB 301121
TAFPUB
TAF
KPUB 301121Z 3012/3112 29006KT P6SM FEW150
     FM301800 18008KT P6SM SCT200
     FM302000 15010KT P6SM SCT120
     FM310200 27010KT P6SM SCT120 SCT150=

USA.gov is the U.S. government's official web portal to all federal, state and local government web resources and services.